Location: Newark
(34.6283°N, 36.0776°E)
Time: 12:12:05
(UTC+00:00)

Tiros 1 despin weight - Pass Details

Date: 21 September 2019
Orbit: 593 x 643 km, 48.2° (Epoch: 20 October)

Event Time Altitude Azimuth Distance (km) Brightness Sun altitude
Rises 12:41:16 0° 306° (NW) 2,862 ? 33.8°
Reaches altitude 10° 12:44:35 10° 331° (NNW) 1,947 ? 33.2°
Maximum altitude 12:47:00 14° 4° (N) 1,679 ? 32.7°
Drops below altitude 10° 12:49:24 10° 37° (NE) 1,934 ? 32.3°
Sets 12:52:42 0° 63° (ENE) 2,830 ? 31.7°
